Weather in Tebessa

Algeria     35°24′15″N   8°07′15″E
temp.,
°C
wind,
m/s
gust,
m/s
humid.,
%
clouds,
%
prec.,
mm/h
press.,
hPa
HPBL,
m
13 april, tue
tue1301:00+9n5883100 0.2 1024872
04:00+8n4682100 0.1 1024677
07:00+8n3479100 0.1 1025514
10:00+11nnw356267 0.0 1024696
13:00+16nw45425 0.0 10221416
16:00+19nnw55305 0.0 10192043
19:00+15ne454573 0.0 1020254
22:00+12ene1155100 0.0 102247
14 april, wed
wed1401:00+11ne016099 0.0 102123
04:00+10ssw016879 0.0 102012
07:00+11s226399 0.0 1020127
10:00+16sw454699 0.0 1019996
13:00+19wsw5743100 0.3 10171744
16:00+18wsw4645100 0.1 10151407
19:00+16nnw1262100 0.3 101696
22:00+14nne1177100 0.3 1017108
15 april, thu
thu1501:00+14n0075100 0.3 101660
04:00+13n1181100 0.0 101560
07:00+13ese1175100 0.0 101594
10:00+15ssw1358100 0.1 1016568
13:00+17sse1347100 1.1 1013997
16:00+19ene344348 0.1 10101017
19:00+15e5758100 0.1 1010231
22:00+11e3577100 0.0 1011192
16 april, fri
fri1601:00+9ene3490100 0.0 1009243
04:00+7ene468996 0.0 1008369
07:00+8ene51084100 0.0 1006830
10:00+9ene4678100 0.0 1006871
13:00+9ne3382100 0.1 1006755
16:00+9n3384100 0.1 1006684
19:00+9nnw348477 0.1 1008421
22:00+9nnw2288100 0.0 1010328
17 april, sat
sat1701:00+9n349198 0.1 1010439
04:00+8nne249484 0.2 1009396
07:00+8n229091 0.3 1011288
10:00+10se117772 0.1 1011639
13:00+11s3363100 0.4 10101102
16:00+13ssw555787 0.1 10081119
19:00+12ssw456254 0.1 1008109
22:00+10wsw1281100 1.9 100992